Simultaneous Nadir Overpasses (SNOs) Predictions

Prediction of SNOs between AQUA and NOAA-19 Satellite Orbit:

Table of predicted SNOs for the next 14.0 days since TLE Epoch: 10/12/2018
Index Date (AQUA) Time (AQUA) Lat,Lon (AQUA) SZA (AQUA ) Date (NOAA-19) Time (NOAA-19) Lat,Lon (NOAA-19) SZA (NOAA-19 ) Distance(km) Time Diff (sec)
1 10/13/2018 08:45:43 -80.77,-169.50 89.85 10/13/2018 08:44:31 -80.59,-170.79 89.85 30.42 72
2 10/13/2018 09:35:07 80.70, -0.97 90.02 10/13/2018 09:35:19 80.69, -1.07 90.02 2.13 12
3 10/15/2018 15:08:50 -80.67, 95.84 89.21 10/15/2018 15:08:56 -80.69, 95.69 89.19 3.04 6
4 10/17/2018 20:42:34 80.68,-167.70 91.62 10/17/2018 20:42:22 80.69,-167.54 91.61 3.13 12
5 10/20/2018 02:16:18 -80.69, -71.20 87.58 10/20/2018 02:16:00 -80.68, -71.25 87.58 1.61 18
6 10/20/2018 03:05:44 80.68, 96.54 92.42 10/20/2018 03:06:54 80.69, 96.48 92.41 1.78 70
7 10/22/2018 07:50:01 80.68, 25.46 93.19 10/22/2018 07:49:26 80.68, 25.61 93.19 2.78 35
8 10/22/2018 08:39:28 -80.68,-166.94 86.80 10/22/2018 08:40:31 -80.69,-166.98 86.81 0.84 63
9 10/24/2018 13:23:45 -80.68, 121.99 86.04 10/24/2018 13:23:03 -80.67, 122.04 86.03 1.54 42




NCC Satellite Simultaneous Nadir Overpasses (SNOs) Prediction Service
